TimeEDT,TemperatureF,Dew PointF,Humidity,Sea Level PressureIn,VisibilityMPH,Wind Direction,Wind SpeedMPH,Gust SpeedMPH,PrecipitationIn,Events,Conditions,WindDirDegrees,DateUTC
12:14 AM,27.3,21.6,79,29.70,4.0,WNW,24.2,28.8,N/A,Snow,Light Snow,300,2013-04-20 04:14:00
12:34 AM,26.8,22.6,84,29.71,2.5,WNW,20.7,26.5,N/A,Snow,Light Snow,290,2013-04-20 04:34:00
4:00 AM,25.3,17.1,71,29.82,10.0,NNW,21.9,29.9,N/A,,Overcast,330,2013-04-20 08:00:00
4:14 AM,25.2,17.1,71,29.83,10.0,NNW,17.3,26.5,N/A,,Overcast,330,2013-04-20 08:14:00
4:34 AM,25.2,18.3,75,29.85,10.0,NW,17.3,25.3,N/A,,Overcast,320,2013-04-20 08:34:00
5:14 AM,25.3,17.4,72,29.87,10.0,NW,17.3,29.9,N/A,,Overcast,310,2013-04-20 09:14:00
5:34 AM,25.5,17.8,72,29.89,10.0,NNW,18.4,26.5,N/A,,Overcast,330,2013-04-20 09:34:00
5:54 AM,25.2,17.4,72,29.90,10.0,NW,18.4,28.8,N/A,,Overcast,320,2013-04-20 09:54:00
6:14 AM,25.2,17.8,74,29.92,10.0,NW,16.1,26.5,N/A,,Overcast,320,2013-04-20 10:14:00
6:35 AM,25.2,18.1,75,29.93,10.0,NW,15.0,25.3,N/A,,Overcast,310,2013-04-20 10:35:00
6:54 AM,25.3,18.0,74,29.94,10.0,NW,18.4,21.9,N/A,,Overcast,320,2013-04-20 10:54:00
7:15 AM,25.5,19.0,76,29.95,4.0,NW,16.1,23.0,N/A,Snow,Light Snow,320,2013-04-20 11:15:00
7:34 AM,26.2,19.4,75,29.97,10.0,NW,15.0,24.2,N/A,,Overcast,310,2013-04-20 11:34:00
7:54 AM,26.2,18.1,71,29.98,10.0,NW,12.7,20.7,N/A,,Overcast,320,2013-04-20 11:54:00
8:15 AM,25.7,18.5,74,29.99,10.0,NW,17.3,21.9,N/A,,Overcast,310,2013-04-20 12:15:00
8:34 AM,27.1,18.9,71,30.00,10.0,NW,18.4,23.0,N/A,,Mostly Cloudy,320,2013-04-20 12:34:00
8:54 AM,27.1,20.5,76,30.02,7.0,NNW,15.0,23.0,N/A,Snow,Light Snow,330,2013-04-20 12:54:00
9:15 AM,27.3,22.6,83,30.03,3.0,NW,16.1,19.6,N/A,Snow,Light Snow,320,2013-04-20 13:15:00
9:34 AM,25.9,22.8,88,30.04,1.0,NW,10.4,-,N/A,Snow,Light Snow,310,2013-04-20 13:34:00
9:54 AM,27.1,21.6,80,30.06,5.0,NW,15.0,19.6,N/A,Snow,Light Snow,310,2013-04-20 13:54:00
10:15 AM,27.1,23.2,85,30.07,1.0,WNW,15.0,23.0,N/A,Snow,Light Snow,300,2013-04-20 14:15:00
10:34 AM,25.5,23.2,91,30.09,0.5,NW,10.4,19.6,N/A,Snow,Light Snow,310,2013-04-20 14:34:00
10:54 AM,26.8,23.9,89,30.11,1.2,WNW,15.0,19.6,N/A,Snow,Light Snow,300,2013-04-20 14:54:00
11:15 AM,26.8,22.5,84,30.12,3.0,WNW,17.3,20.7,N/A,Snow,Light Snow,290,2013-04-20 15:15:00
11:34 AM,27.1,23.7,87,30.14,1.8,WNW,13.8,19.6,N/A,Snow,Light Snow,290,2013-04-20 15:34:00
11:55 AM,27.5,23.4,84,30.16,4.0,West,12.7,-,N/A,Snow,Light Snow,280,2013-04-20 15:55:00
12:14 PM,28.9,23.9,81,30.17,7.0,WNW,13.8,-,N/A,Snow,Light Snow,290,2013-04-20 16:14:00
12:34 PM,30.4,25.2,81,30.18,7.0,West,16.1,21.9,N/A,Snow,Light Snow,280,2013-04-20 16:34:00
12:55 PM,31.1,25.3,79,30.19,10.0,West,17.3,-,N/A,,Overcast,280,2013-04-20 16:55:00
1:14 PM,31.8,23.5,71,30.20,10.0,WNW,15.0,-,N/A,,Mostly Cloudy,300,2013-04-20 17:14:00
1:34 PM,30.6,24.3,77,30.21,4.0,WNW,17.3,-,N/A,Snow,Light Snow,290,2013-04-20 17:34:00
1:55 PM,30.0,23.5,77,30.22,4.0,NW,12.7,20.7,N/A,Snow,Light Snow,310,2013-04-20 17:55:00
2:14 PM,30.4,20.8,68,30.23,10.0,WNW,13.8,-,N/A,,Overcast,290,2013-04-20 18:14:00
2:34 PM,31.1,22.5,70,30.24,10.0,WNW,13.8,24.2,N/A,,Overcast,300,2013-04-20 18:34:00
2:55 PM,32.2,21.2,64,30.25,10.0,WNW,16.1,-,N/A,,Mostly Cloudy,290,2013-04-20 18:55:00
3:14 PM,32.5,19.9,60,30.26,10.0,WNW,15.0,19.6,N/A,,Scattered Clouds,300,2013-04-20 19:14:00
3:34 PM,32.4,18.9,58,30.27,10.0,WNW,13.8,20.7,N/A,,Scattered Clouds,300,2013-04-20 19:34:00
3:54 PM,33.1,18.3,55,30.28,10.0,WNW,17.3,20.7,N/A,,Scattered Clouds,300,2013-04-20 19:54:00
4:14 PM,32.0,17.8,56,30.29,10.0,WNW,11.5,20.7,N/A,,Scattered Clouds,300,2013-04-20 20:14:00
4:35 PM,32.4,18.3,56,30.30,10.0,WNW,12.7,-,N/A,,Scattered Clouds,300,2013-04-20 20:35:00
4:54 PM,32.7,18.3,55,30.32,10.0,WNW,10.4,17.3,N/A,,Scattered Clouds,290,2013-04-20 20:54:00
5:14 PM,32.2,18.5,57,30.33,10.0,NW,12.7,-,N/A,,Scattered Clouds,310,2013-04-20 21:14:00
5:35 PM,32.9,18.1,55,30.34,10.0,NW,11.5,17.3,N/A,,Clear,310,2013-04-20 21:35:00
5:54 PM,32.0,17.1,54,30.34,10.0,WNW,11.5,-,N/A,,Clear,300,2013-04-20 21:54:00
6:15 PM,32.0,17.2,55,30.35,10.0,WNW,11.5,16.1,N/A,,Clear,300,2013-04-20 22:15:00
6:35 PM,32.0,18.1,57,30.35,10.0,West,10.4,16.1,N/A,,Clear,280,2013-04-20 22:35:00
6:54 PM,32.0,18.3,57,30.37,10.0,West,10.4,-,N/A,,Clear,280,2013-04-20 22:54:00
7:15 PM,31.6,17.2,55,30.37,10.0,West,10.4,-,N/A,,Clear,280,2013-04-20 23:15:00
7:34 PM,31.5,17.1,55,30.37,10.0,West,8.1,-,N/A,,Clear,280,2013-04-20 23:34:00
7:54 PM,30.9,17.4,57,30.37,10.0,WNW,5.8,-,N/A,,Clear,290,2013-04-20 23:54:00
8:15 PM,29.8,17.6,60,30.39,10.0,West,6.9,-,N/A,,Clear,280,2013-04-21 00:15:00
8:34 PM,29.1,18.0,63,30.39,10.0,West,4.6,-,N/A,,Clear,280,2013-04-21 00:34:00
8:55 PM,28.0,18.3,67,30.40,10.0,West,5.8,-,N/A,,Clear,260,2013-04-21 00:55:00
9:14 PM,28.4,18.9,67,30.42,10.0,West,3.5,-,N/A,,Scattered Clouds,270,2013-04-21 01:14:00
9:54 PM,28.8,15.8,58,30.43,10.0,NNW,3.5,-,N/A,,Clear,340,2013-04-21 01:54:00
10:14 PM,29.1,15.3,56,30.44,10.0,North,3.5,-,N/A,,Clear,350,2013-04-21 02:14:00
10:35 PM,28.9,15.3,57,30.45,10.0,NNW,3.5,-,N/A,,Clear,330,2013-04-21 02:35:00
10:54 PM,28.4,15.3,58,30.45,10.0,NNW,3.5,-,N/A,,Clear,340,2013-04-21 02:54:00
11:14 PM,28.8,15.6,58,30.46,10.0,North,4.6,-,N/A,,Clear,10,2013-04-21 03:14:00
11:34 PM,28.2,18.1,66,30.46,10.0,Calm,Calm,-,N/A,,Clear,0,2013-04-21 03:34:00
11:54 PM,26.1,20.1,78,30.47,10.0,Calm,Calm,-,N/A,,Clear,0,2013-04-21 03:54:00